Location: Hysolar-Haus
(48.7436°N, 9.0965°E)
Time: 07:51:42
(UTC+00:00)

Vanguard 3 - Visible Passes

Search period start: 17 November 2019 00:00
Search period end: 27 November 2019 00:00
Orbit: 508 x 3263 km, 33.3° (Epoch: 16 November)

Date Brightness Start Highest point End Pass type
(mag) Time Alt. Az. Time Alt. Az. Time Alt. Az.
17 Nov 10.3 17:11:14 10° WSW 17:26:36 39° SSW 17:36:39 10° SE visible
17 Nov 10.2 19:29:15 10° W 19:37:57 20° SW 19:42:14 15° SSW visible
18 Nov 10.5 15:54:10 10° WSW 16:11:28 45° S 16:23:24 10° ESE visible
18 Nov 10.3 18:11:00 10° W 18:24:05 30° SSW 18:32:43 11° SSE visible
19 Nov 10.5 16:53:26 10° W 17:09:30 39° SSW 17:20:23 10° SE visible
19 Nov 10.5 19:11:48 10° W 19:20:58 19° SW 19:27:49 10° S visible
20 Nov 10.5 17:53:18 10° W 18:07:01 30° SSW 18:16:32 10° SSE visible
21 Nov 10.6 16:35:41 10° W 16:52:16 39° SSW 17:03:59 10° SE visible
21 Nov 10.7 18:54:23 10° W 19:03:51 19° SW 19:11:08 10° S visible
22 Nov 10.7 17:35:39 10° W 17:49:46 29° SW 18:00:00 10° SSE visible
23 Nov 10.8 16:18:02 10° W 16:34:55 39° SSW 16:47:26 10° SE visible
23 Nov 10.9 18:37:03 10° W 18:46:37 18° SW 18:54:13 10° S visible
24 Nov 10.9 17:18:05 10° W 17:32:25 28° SW 17:43:16 10° SSE visible
25 Nov 11.0 16:00:30 10° W 16:17:27 38° SSW 16:30:43 10° SE visible
25 Nov 11.1 18:19:52 10° W 18:29:16 17° SW 18:37:01 10° SSW visible
26 Nov 11.1 17:00:37 10° W 17:14:58 27° SW 17:26:20 10° SSE visible
